Location: Ocean City
(38.3360°N, 75.0850°W)
Time: 21:39:08
(UTC-05:00)

Altair - Visible Passes

Search period start: 12 November 2019 00:00
Search period end: 22 November 2019 00:00
Orbit: 1502 x 1682 km, 47.2° (Epoch: 12 November)

Date Brightness Start Highest point End Pass type
(mag) Time Alt. Az. Time Alt. Az. Time Alt. Az.
12 Nov 9.5 01:51:57 13° ESE 01:51:57 13° ESE 01:54:13 10° E visible
12 Nov 7.8 03:50:02 38° SSW 03:53:28 57° SE 04:02:26 10° ENE visible
12 Nov 7.6 05:49:03 10° WSW 05:58:09 64° NNW 06:07:29 10° ENE visible
13 Nov 7.8 03:26:57 49° SSE 03:28:23 52° SE 03:37:13 10° ENE visible
13 Nov 7.5 05:25:01 15° WSW 05:32:56 66° NNW 05:42:16 10° ENE visible
14 Nov 8.0 03:03:45 48° SE 03:03:45 48° SE 03:11:59 10° ENE visible
14 Nov 7.4 05:01:49 25° WSW 05:07:44 69° NNW 05:17:03 10° ENE visible
15 Nov 8.4 02:40:27 38° ESE 02:40:27 38° ESE 02:46:44 10° ENE visible
15 Nov 7.3 04:38:30 38° W 04:42:32 73° NNW 04:51:51 10° ENE visible
16 Nov 8.8 02:17:03 28° E 02:17:03 28° E 02:21:28 10° ENE visible
16 Nov 7.3 04:15:06 56° W 04:17:21 77° NNW 04:26:40 10° ENE visible
17 Nov 9.2 01:53:35 20° E 01:53:35 20° E 01:56:12 10° ENE visible
17 Nov 7.2 03:51:37 77° WNW 03:52:10 81° NNW 04:01:28 10° ENE visible
17 Nov 7.8 05:49:40 13° WNW 05:57:48 50° N 06:06:52 10° ENE visible
18 Nov 9.6 01:30:03 13° ENE 01:30:03 13° ENE 01:30:54 10° ENE visible
18 Nov 7.4 03:28:05 73° NE 03:28:05 73° NE 03:36:17 10° ENE visible
18 Nov 7.8 05:26:08 20° WNW 05:32:32 50° N 05:41:35 10° ENE visible
19 Nov 7.9 03:04:29 53° ENE 03:04:29 53° ENE 03:11:06 10° ENE visible
19 Nov 7.7 05:02:32 29° WNW 05:07:17 51° N 05:16:19 10° ENE visible
20 Nov 8.4 02:40:52 38° ENE 02:40:52 38° ENE 02:45:56 10° ENE visible
20 Nov 7.7 04:38:54 39° WNW 04:42:01 52° N 04:51:04 10° ENE visible
21 Nov 8.9 02:17:12 27° ENE 02:17:12 27° ENE 02:20:45 10° ENE visible
21 Nov 7.6 04:15:14 49° NW 04:16:46 54° NNW 04:25:49 10° ENE visible
21 Nov 7.9 06:13:52 10° WNW 06:22:52 54° NNE 06:32:03 10° E visible
